Regional Weather Roundup
Issued by NWS

Home | Current Version | Previous Version | Text Only | Print | Product List | Glossary Off
Versions: 1 2 3 4 5 6 7 8 9 10 11 12 13 14 15 16 17 18 19 20 21 22 23 24 25 26 27

000
ASUS45 KTFX 202310
RWRMT
MONTANA REGIONAL WEATHER ROUNDUP
NATIONAL WEATHER SERVICE GREAT FALLS MT
500 PM MDT THU JUL 20 2017

NOTE: "FAIR" INDICATES FEW OR NO CLOUDS BELOW 12000 FEET WITH NO
SIGNIFICANT WEATHER AND/OR OBSTRUCTIONS TO VISIBILITY.

MTZ001>007-043-210000-
WEST OF THE DIVIDE

CITY           SKY/WX    TMP DP  RH WIND       PRES   REMARKS
KALISPELL      SUNNY     86  38  18 W18G28    29.91R
MISSOULA       MOSUNNY   89  34  14 NW23G29   29.94F
BUTTE          SUNNY     88  20   8 W16G31    30.01F
MULLAN PASS    MOSUNNY   64  38  38 VRB7G20   30.17F
ANACONDA         N/A     88  34  14 W15G21    29.98F
DEER LODGE       N/A     84  36  17 NW16G29   29.97F
EUREKA           N/A     84  37  18 MISG      29.92S
HAMILTON         N/A     84  43  23 W10G22    29.94F
LIBBY            N/A     82  39  21 S10G17    29.95S
PLAINS           N/A     84  46  26 SW10      29.97S
THOMPSON FALLS   N/A     84  42  22 SW15      30.01F
$$

MTZ008-052>055-210000-
SOUTHWEST MONTANA

CITY           SKY/WX    TMP DP  RH WIND       PRES   REMARKS
DILLON         SUNNY     86  39  19 SW18G24   29.95F
W YELLOWSTONE  CLOUDY    79  50  36 S17       30.15F
ENNIS          SUNNY     91  30  11 W15G29    30.02F
THREE FORKS      N/A     97  32  10 SW15      29.89F HX  91
TWIN BRIDGES     N/A     91  37  15 SW20      29.94F
$$

MTZ009-010-012-014-046-048-049-054-210000-
EAST SLOPES AND CENTRAL MONTANA

CITY           SKY/WX    TMP DP  RH WIND       PRES   REMARKS
CUT BANK       MOSUNNY   88  31  13 W36G44    29.87S
GREAT FALLS    SUNNY     94  26   9 W23G32    29.83F
MALMSTROM AFB  SUNNY     93  30  10 W20G29    29.82F
HELENA         SUNNY     95  34  11 W18G29    29.86S HX  90
CHOTEAU          N/A     91  23   8 W21G31    29.89S
CONRAD           N/A     92  42  17 W9        29.89F
$$

MTZ011-013-016-021-045-047-050-051-210000-
NORTH CENTRAL MONTANA

CITY           SKY/WX    TMP DP  RH WIND       PRES   REMARKS
HAVRE          SUNNY     96  39  13 E13G18    29.76F HX  91
LEWISTOWN      SUNNY     93  34  12 N9G20     29.88F
N BAR RANCH      N/A     90  30  12 N7G14     29.93F
CHINOOK          N/A     93  45  18 E14       29.76F
$$

MTZ017>020-022>027-061-062-210000-
NORTHEAST MONTANA

CITY           SKY/WX    TMP DP  RH WIND       PRES   REMARKS
GLASGOW        SUNNY     92  45  19 E28G37    29.77
JORDAN           N/A     99  38  12 NW15G23   29.76F HX  94
SIDNEY         MOSUNNY   89  61  38 NE23G32   29.77S
WOLF POINT     SUNNY     91  49  23 NE25G37   29.78F
MALTA          SUNNY     93  43  17 NE15G23   29.77F
PLENTYWOOD       N/A     79  64  61 E16G23    29.86F
SCOBEY           N/A     86  51  29 NE17      29.85F
$$

MTZ028>42-056>058-210000-
SOUTHCENTRAL AND SOUTHEAST MONTANA

CITY           SKY/WX    TMP DP  RH WIND       PRES   REMARKS
BAKER          PTSUNNY   87  52  29 SW12      29.80F
BILLINGS       CLOUDY    92  44  19 SW17G36   29.87F
LIVINGSTON     CLOUDY    93  38  14 SW9G23    29.91F
MILES CITY     PTSUNNY   97  32  10 SW16      29.80S HX  91
BIG TIMBER     SUNNY     93  39  15 W13       29.93F
EKALAKA          N/A     78  54  43 W16       29.91R
FORSYTH          N/A     99  37  12 SW12      29.80F HX  93
LAUREL           N/A     90  46  21 S22       29.89S
ROUNDUP          N/A     99  30   9 SW12      29.77F HX  93
$$

REGIONAL REPORTS...DAKOTAS

CITY           SKY/WX    TMP DP  RH WIND       PRES   REMARKS
WILLISTON      PTSUNNY   91  50  24 NE24G35   29.84S
MINOT          CLOUDY    85  61  44 NE9       29.86F
DICKINSON      TSTM      80  58  46 S12G37    29.80R
BEACH            N/A    100  48  17 W15       29.78F HX  97
CROSBY           N/A     72  66  83 E8        29.91F
TIOGA          CLOUDY    84  50  30 NE21G28   29.90S
WATFORD CITY     N/A     84  63  48 E17G25    29.80S
BISMARCK       SUNNY     91  54  28 SE21G26   29.82F
GRAND FORKS    MOSUNNY   85  64  49 VRB3      29.93F
FARGO          SUNNY     87  65  47 S8        29.92F
BUFFALO SD       N/A     99  55  23 S32G41    29.70F HX  97
RAPID CITY     SUNNY     98  58  26 S21G29    29.90F HX  97
$$

REGIONAL REPORTS...WYOMING/IDAHO/WASHINGTON

CITY           SKY/WX    TMP DP  RH WIND       PRES   REMARKS
CODY           LGT RAIN  66  57  72 S20       30.12F
YELLOWSTONE LA   N/A     65  52  62 CALM      30.31F
IDAHO FALLS    MOSUNNY   87  48  25 S13       30.03F
BOISE          SUNNY     91  40  16 N13       29.98F
SPOKANE        PTSUNNY   78  41  26 SW17G25   30.01F
$$

REGIONAL REPORTS...ALBERTA

CITY           SKY/WX    TMP DP  RH WIND       PRES   REMARKS
EDMONTON       MOSUNNY   73  57  56 E16       29.78F
CALGARY        MOSUNNY   79  39  24 SW14G21   29.81S
LETHBRIDGE     MOSUNNY   84  46  26 S3        29.82F
MEDICINE HAT   MOSUNNY   91  41  17 W6        29.76F
WATERTON GATE    N/A     79  39  24 SW12G17     N/A
CARDSTON         N/A     81  39  22 W6          N/A
MILK RIVER       N/A     84  48  28 N14G20      N/A
$$

REGIONAL REPORTS...SASKATCHEWAN

CITY           SKY/WX    TMP DP  RH WIND       PRES   REMARKS
SWIFT CURRENT  MOSUNNY   88  46  23 SE13      29.83F
REGINA         MOSUNNY   88  55  33 SE18      29.86F
SASKATOON      PTSUNNY   82  54  36 E18       29.86F
CYPRESS HILLS    N/A     81  45  28 SE5         N/A
VAL MARIE        N/A     91  36  14 E12         N/A
ROCKGLEN         N/A     86  43  22 E9          N/A
ASSINIBOIA       N/A     75  54  46 E17         N/A
$$




USA.gov is the U.S. government's official web portal to all federal, state and local government web resources and services.